Charlottetown, Prince Edward Island

9:06 AM ADT on July 28, 2017 (GMT -0300)
Charlottetown

Weather History for CYYG - September, 2012

Change the Weather History Date:

Monday, September 10, 2012

  Actual Average Record
Temperature  
Mean Temperature 57 °F -  
Max Temperature 59 °F 61 °F 82 °F (2001)
Min Temperature 55 °F 45 °F 43 °F (2014)
Degree Days  
Heating Degree Days 8    
Growing Degree Days 7 (Base 50)    
Moisture  
Dew Point 58 °F    
Average Humidity 98    
Maximum Humidity 100    
Minimum Humidity 94    
Precipitation  
Precipitation 1.89 in 0.13 in - ()
Sea Level Pressure  
Sea Level Pressure 29.74 in    
Wind  
Wind Speed 8 mph ()    
Max Wind Speed 17 mph    
Max Gust Speed 25 mph    
Visibility 7.2 miles    
Events Rain , Thunderstorm    
Averages and records for this station are not official NWS values.
T = Trace of Precipitation, MM = Missing Value Source: Averaged Metar Reports

Daily Weather History Graph

Daily Weather History Graph

Search for Another Location

Airport or City:

Trip Planner

Search our weather history database for the weather conditions in past years. The results will help you decide how hot, cold, wet, or windy it might be!

Date:

Astronomy

Sep. 10, 2012 Rise Set
Actual Time 6:44 AM ADT 7:32 PM ADT
Civil Twilight 6:14 AM ADT 8:03 PM ADT
Nautical Twilight 5:38 AM ADT 8:39 PM ADT
Astronomical Twilight 4:59 AM ADT 9:17 PM ADT
Moon 12:47 AM ADT (9/10) 4:13 PM ADT (9/10)
Length of Visible Light 13h 49m
Length of Day
12h 48m
Waning Crescent, 30% of the Moon is Illuminated
Sep 10
Waning Crescent
Sep 15
New
Sep 22
First Quarter
Sep 30
Full
Oct 8
Last Quarter

Hourly Weather History & Observations

Time (ADT) Temp. Dew Point Humidity Pressure Visibility Wind Dir Wind Speed Gust Speed Precip Events Conditions
12:00 AM 62.6 °F 62.6 °F 100% 29.81 in 6.0 mi Calm Calm - N/A Rain Light Rain Showers
1:00 AM 62.6 °F 62.6 °F 100% 29.79 in 10.0 mi North 3.5 mph - N/A Rain Light Rain Showers
1:17 AM 62.6 °F - N/A% - 5.0 mi North 4.6 mph - N/A   Overcast
1:30 AM 62.6 °F - N/A% - 2.5 mi WNW 8.1 mph - N/A Rain Light Rain Showers
2:00 AM 60.8 °F 60.8 °F 100% 29.79 in 5.0 mi NNW 9.2 mph - N/A Rain Light Rain Showers
2:32 AM 59.0 °F - N/A% - 3.0 mi North 9.2 mph - N/A Rain , Thunderstorm Heavy Thunderstorms and Rain
2:51 AM 59.0 °F - N/A% - 3.0 mi North 9.2 mph - N/A Rain Rain Showers
3:00 AM 59 °F 59 °F 99% 29.76 in 3 mi North 9.2 mph - - Rain Light Rain
3:00 AM 59.0 °F 59.0 °F 100% 29.76 in 3.0 mi North 5.8 mph - N/A Rain Light Rain Showers
4:00 AM 59.0 °F 59.0 °F 100% 29.76 in 5.0 mi North 6.9 mph - N/A Rain Light Rain Showers
5:00 AM 59.0 °F 59.0 °F 100% 29.75 in 4.0 mi North 13.8 mph - N/A Rain Heavy Rain Showers
5:42 AM 57.2 °F - N/A% - 4.0 mi NNE 15.0 mph - N/A Rain Light Rain Showers
6:00 AM 57.2 °F 57.2 °F 100% 29.71 in 4.0 mi North 11.5 mph 19.6 mph N/A Rain Light Rain Showers
6:31 AM 57.2 °F - N/A% - 2.0 mi NNW 10.4 mph - N/A Rain Heavy Rain Showers
7:00 AM 57.2 °F 57.2 °F 100% 29.75 in 1.5 mi NNW 10.4 mph - N/A Rain Heavy Rain
7:42 AM 57.2 °F - N/A% - 2.0 mi NNW 6.9 mph - N/A Rain Heavy Rain
8:00 AM 55.4 °F 55.4 °F 100% 29.74 in 2.0 mi North 15.0 mph - N/A Rain Heavy Rain
8:17 AM 55.4 °F - N/A% - 4.0 mi North 12.7 mph 20.7 mph N/A Rain Rain
8:39 AM 55.4 °F - N/A% - 4.0 mi NNE 13.8 mph - N/A Rain Rain
9:00 AM 56 °F 56 °F 100% 29.73 in 5 mi North 12.7 mph - - Rain Rain
9:00 AM 55.4 °F 55.4 °F 100% 29.73 in 5.0 mi North 11.5 mph 19.6 mph N/A Rain Rain
10:00 AM 57.2 °F 57.2 °F 100% 29.74 in 8.0 mi North 8.1 mph - N/A Rain Light Rain
11:00 AM 57.2 °F 57.2 °F 100% 29.75 in 8.0 mi North 6.9 mph - N/A Rain Light Rain
11:20 AM 57.2 °F - N/A% - 3.0 mi NNW 6.9 mph - N/A   Light Drizzle
12:00 PM 57.2 °F 57.2 °F 100% 29.75 in 5.0 mi NNW 9.2 mph - N/A   Light Drizzle
12:22 PM 57.2 °F - N/A% - 4.0 mi North 8.1 mph - N/A Rain Light Rain
1:00 PM 57.2 °F 57.2 °F 100% 29.74 in 2.0 mi North 9.2 mph - N/A   Light Drizzle
1:42 PM 59.0 °F - N/A% - 15.0 mi North 10.4 mph 18.4 mph N/A   Light Drizzle
1:53 PM 59.0 °F - N/A% - 15.0 mi North 9.2 mph - N/A   Overcast
2:00 PM 59.0 °F 57.2 °F 94% 29.72 in 15.0 mi North 11.5 mph 18.4 mph N/A   Overcast
2:48 PM 59.0 °F - N/A% - 10.0 mi North 11.5 mph - N/A   Light Drizzle
3:00 PM 58 °F 57 °F 94% 29.74 in 10 mi North 9.2 mph - - Rain Light Drizzle
3:00 PM 57.2 °F 57.2 °F 100% 29.74 in 10.0 mi North 8.1 mph - N/A   Light Drizzle
3:18 PM 59.0 °F - N/A% - 2.0 mi North 9.2 mph - N/A   Light Drizzle
4:00 PM 57.2 °F 57.2 °F 100% 29.71 in 3.0 mi North 10.4 mph - N/A   Light Drizzle
4:29 PM 59.0 °F - N/A% - 10.0 mi NNW 6.9 mph - N/A   Light Drizzle
5:00 PM 59.0 °F 59.0 °F 100% 29.73 in 8.0 mi North 8.1 mph - N/A   Light Drizzle
6:00 PM 59.0 °F 59.0 °F 100% 29.71 in 10.0 mi North 10.4 mph 18.4 mph N/A   Light Drizzle
6:17 PM 59.0 °F - N/A% - 3.0 mi North 10.4 mph - N/A   Light Drizzle
6:38 PM 59.0 °F - N/A% - 15.0 mi NNE 13.8 mph - N/A   Overcast
7:00 PM 59.0 °F 57.2 °F 94% 29.70 in 15.0 mi North 13.8 mph 20.7 mph N/A   Mostly Cloudy
7:17 PM 59.0 °F - N/A% - 10.0 mi North 13.8 mph 19.6 mph N/A   Light Drizzle
7:30 PM 59.0 °F - N/A% - 12.0 mi North 12.7 mph - N/A   Light Drizzle
7:36 PM 59.0 °F - N/A% - 12.0 mi North 11.5 mph 19.6 mph N/A Rain Light Rain
8:00 PM 59.0 °F 57.2 °F 94% 29.71 in 10.0 mi North 13.8 mph - N/A Rain Light Rain
8:16 PM 59.0 °F - N/A% - 2.5 mi North 9.2 mph 19.6 mph N/A Rain Rain
8:43 PM 59.0 °F - N/A% - 5.0 mi North 17.3 mph 25.3 mph N/A Rain Light Rain
9:00 PM 58 °F 57 °F 94% 29.73 in 6 mi North 12.7 mph - - Rain Light Rain
9:00 PM 59.0 °F 57.2 °F 94% 29.73 in 6.0 mi North 15.0 mph - N/A Rain Light Rain
9:22 PM 57.2 °F - N/A% - 15.0 mi North 15.0 mph 21.9 mph N/A   Overcast
10:00 PM 57.2 °F 55.4 °F 94% 29.73 in 7.0 mi NNE 12.7 mph 18.4 mph N/A Rain Light Rain Showers
10:26 PM 57.2 °F - N/A% - 12.0 mi North 12.7 mph - N/A   Overcast
11:00 PM 55.4 °F 55.4 °F 100% 29.71 in 15.0 mi North 10.4 mph - N/A   Overcast
11:08 PM 55.4 °F - N/A% - 12.0 mi North 17.3 mph - N/A Rain Light Rain Showers
11:42 PM 55.4 °F - N/A% - 15.0 mi North 11.5 mph - N/A   Overcast